Year,Month,Day,Hour,Minute,Value (Times are PST for temperature in C)
2017,11,27,00,00,6.80
2017,11,27,00,01,6.80
2017,11,27,00,02,6.80
2017,11,27,00,03,6.80
2017,11,27,00,04,6.70
2017,11,27,00,05,6.70
2017,11,27,00,06,6.70
2017,11,27,00,07,6.70
2017,11,27,00,08,6.70
2017,11,27,00,09,6.70
2017,11,27,00,10,6.70
2017,11,27,00,11,6.70
2017,11,27,00,12,6.70
2017,11,27,00,13,6.70
2017,11,27,00,14,6.70
2017,11,27,00,15,6.70
2017,11,27,00,16,6.70
2017,11,27,00,17,6.70
2017,11,27,00,18,6.70
2017,11,27,00,19,6.70
2017,11,27,00,20,6.70
2017,11,27,00,21,6.70
2017,11,27,00,22,6.70
2017,11,27,00,23,6.70
2017,11,27,00,24,6.70
2017,11,27,00,25,6.70
2017,11,27,00,26,6.70
2017,11,27,00,27,6.70
2017,11,27,00,28,6.80
2017,11,27,00,29,6.80
2017,11,27,00,30,6.80
2017,11,27,00,31,6.80
2017,11,27,00,32,6.80
2017,11,27,00,33,6.80
2017,11,27,00,34,6.90
2017,11,27,00,35,6.90
2017,11,27,00,36,6.90
2017,11,27,00,37,6.90
2017,11,27,00,38,6.90
2017,11,27,00,39,6.90
2017,11,27,00,40,6.90
2017,11,27,00,41,6.80
2017,11,27,00,42,6.80
2017,11,27,00,43,6.80
2017,11,27,00,44,6.80
2017,11,27,00,45,6.80
2017,11,27,00,46,6.70
2017,11,27,00,47,6.70
2017,11,27,00,48,6.70
2017,11,27,00,49,6.70
2017,11,27,00,50,6.70
2017,11,27,00,51,6.70
2017,11,27,00,52,6.70
2017,11,27,00,53,6.70
2017,11,27,00,54,6.70
2017,11,27,00,55,6.80
2017,11,27,00,56,6.80
2017,11,27,00,57,6.80
2017,11,27,00,58,6.80
2017,11,27,00,59,6.80
2017,11,27,01,00,6.80
2017,11,27,01,01,6.80
2017,11,27,01,02,6.80
2017,11,27,01,03,6.80
2017,11,27,01,04,6.80
2017,11,27,01,05,6.80
2017,11,27,01,06,6.80
2017,11,27,01,07,6.80
2017,11,27,01,08,6.80
2017,11,27,01,09,6.80
2017,11,27,01,10,6.80
2017,11,27,01,11,6.70
2017,11,27,01,12,6.70
2017,11,27,01,13,6.70
2017,11,27,01,14,6.70
2017,11,27,01,15,6.70
2017,11,27,01,16,6.70
2017,11,27,01,17,6.70
2017,11,27,01,18,6.70
2017,11,27,01,19,6.70
2017,11,27,01,20,6.70
2017,11,27,01,21,6.70
2017,11,27,01,22,6.70
2017,11,27,01,23,6.70
2017,11,27,01,24,6.70
2017,11,27,01,25,6.80
2017,11,27,01,26,6.80
2017,11,27,01,27,6.80
2017,11,27,01,28,6.80
2017,11,27,01,29,6.80
2017,11,27,01,30,6.80
2017,11,27,01,31,6.80
2017,11,27,01,32,6.80
2017,11,27,01,33,6.80
2017,11,27,01,34,6.80
2017,11,27,01,35,6.80
2017,11,27,01,36,6.80
2017,11,27,01,37,6.80
2017,11,27,01,38,6.80
2017,11,27,01,39,6.80
2017,11,27,01,40,6.80
2017,11,27,01,41,6.80
2017,11,27,01,42,6.80
2017,11,27,01,43,6.80
2017,11,27,01,44,6.80
2017,11,27,01,45,6.80
2017,11,27,01,46,6.70
2017,11,27,01,47,6.70
2017,11,27,01,48,6.70
2017,11,27,01,49,6.70
2017,11,27,01,50,6.70
2017,11,27,01,51,6.70
2017,11,27,01,52,6.70
2017,11,27,01,53,6.70
2017,11,27,01,54,6.70
2017,11,27,01,55,6.70
2017,11,27,01,56,6.70
2017,11,27,01,57,6.60
2017,11,27,01,58,6.60
2017,11,27,01,59,6.60
2017,11,27,02,00,6.60
2017,11,27,02,01,6.60
2017,11,27,02,02,6.60
2017,11,27,02,03,6.60
2017,11,27,02,04,6.60
2017,11,27,02,05,6.60
2017,11,27,02,06,6.60
2017,11,27,02,07,6.60
2017,11,27,02,08,6.60
2017,11,27,02,09,6.60
2017,11,27,02,10,6.60
2017,11,27,02,11,6.60
2017,11,27,02,12,6.60
2017,11,27,02,13,6.60
2017,11,27,02,14,6.50
2017,11,27,02,15,6.50
2017,11,27,02,16,6.50
2017,11,27,02,17,6.50
2017,11,27,02,18,6.50
2017,11,27,02,19,6.50
2017,11,27,02,20,6.60
2017,11,27,02,21,6.60
2017,11,27,02,22,6.60
2017,11,27,02,23,6.60
2017,11,27,02,24,6.60
2017,11,27,02,25,6.60
2017,11,27,02,26,6.60
2017,11,27,02,27,6.60
2017,11,27,02,28,6.60
2017,11,27,02,29,6.60
2017,11,27,02,30,6.60
2017,11,27,02,31,6.70
2017,11,27,02,32,6.70
2017,11,27,02,33,6.70
2017,11,27,02,34,6.70
2017,11,27,02,35,6.70
2017,11,27,02,36,6.70
2017,11,27,02,37,6.70
2017,11,27,02,38,6.70
2017,11,27,02,39,6.70
2017,11,27,02,40,6.70
2017,11,27,02,41,6.70
2017,11,27,02,42,6.70
2017,11,27,02,43,6.70
2017,11,27,02,44,6.70
2017,11,27,02,45,6.70
2017,11,27,02,46,6.70
2017,11,27,02,47,6.70
2017,11,27,02,48,6.70
2017,11,27,02,49,6.70
2017,11,27,02,50,6.70
2017,11,27,02,51,6.70
2017,11,27,02,52,6.70
2017,11,27,02,53,6.70
2017,11,27,02,54,6.70
2017,11,27,02,55,6.70
2017,11,27,02,56,6.70
2017,11,27,02,57,6.70
2017,11,27,02,58,6.70
2017,11,27,02,59,6.70
2017,11,27,03,00,6.70
2017,11,27,03,01,6.70
2017,11,27,03,02,6.70
2017,11,27,03,03,6.70
2017,11,27,03,04,6.70
2017,11,27,03,05,6.70
2017,11,27,03,06,6.70
2017,11,27,03,07,6.70
2017,11,27,03,08,6.70
2017,11,27,03,09,6.80
2017,11,27,03,10,6.70
2017,11,27,03,11,6.80
2017,11,27,03,12,6.80
2017,11,27,03,13,6.80
2017,11,27,03,14,6.80
2017,11,27,03,15,6.80
2017,11,27,03,16,6.80
2017,11,27,03,17,6.80
2017,11,27,03,18,6.80
2017,11,27,03,19,6.80
2017,11,27,03,20,6.70
2017,11,27,03,21,6.70
2017,11,27,03,22,6.70
2017,11,27,03,23,6.70
2017,11,27,03,24,6.70
2017,11,27,03,25,6.70
2017,11,27,03,26,6.70
2017,11,27,03,27,6.70
2017,11,27,03,28,6.70
2017,11,27,03,29,6.70
2017,11,27,03,30,6.70
2017,11,27,03,31,6.60
2017,11,27,03,32,6.60
2017,11,27,03,33,6.60
2017,11,27,03,34,6.60
2017,11,27,03,35,6.60
2017,11,27,03,36,6.60
2017,11,27,03,37,6.60
2017,11,27,03,38,6.50
2017,11,27,03,39,6.50
2017,11,27,03,40,6.50
2017,11,27,03,41,6.50
2017,11,27,03,42,6.50
2017,11,27,03,43,6.50
2017,11,27,03,44,6.50
2017,11,27,03,45,6.40
2017,11,27,03,46,6.40
2017,11,27,03,47,6.40
2017,11,27,03,48,6.40
2017,11,27,03,49,6.40
2017,11,27,03,50,6.40
2017,11,27,03,51,6.40
2017,11,27,03,52,6.40
2017,11,27,03,53,6.40
2017,11,27,03,54,6.40
2017,11,27,03,55,6.40
2017,11,27,03,56,6.40
2017,11,27,03,57,6.40
2017,11,27,03,58,6.40
2017,11,27,03,59,6.40
2017,11,27,04,00,6.40
2017,11,27,04,01,6.40
2017,11,27,04,02,6.40
2017,11,27,04,03,6.40
2017,11,27,08,29,6.30
2017,11,27,08,30,6.30
2017,11,27,08,31,6.30
2017,11,27,08,32,6.30
2017,11,27,08,33,6.30
2017,11,27,08,34,6.30
2017,11,27,08,35,6.30
2017,11,27,08,36,6.30
2017,11,27,08,37,6.40
2017,11,27,08,38,6.40
2017,11,27,08,39,6.40
2017,11,27,08,40,6.50
2017,11,27,08,41,6.50
2017,11,27,08,42,6.60
2017,11,27,08,43,6.60
2017,11,27,08,44,6.70
2017,11,27,08,45,6.70
2017,11,27,08,46,6.70
2017,11,27,08,47,6.80
2017,11,27,08,48,6.80
2017,11,27,08,49,6.80
2017,11,27,08,50,6.90
2017,11,27,08,51,6.90
2017,11,27,08,52,7.00
2017,11,27,08,53,7.10
2017,11,27,08,54,7.10
2017,11,27,08,55,7.20
2017,11,27,08,56,7.20
2017,11,27,08,57,7.30
2017,11,27,08,58,7.30
2017,11,27,08,59,7.30
2017,11,27,09,00,7.40
2017,11,27,09,01,7.40
2017,11,27,09,02,7.50
2017,11,27,09,03,7.50
2017,11,27,09,04,7.50
2017,11,27,09,05,7.60
2017,11,27,09,06,7.60
2017,11,27,09,07,7.70
2017,11,27,09,08,7.70
2017,11,27,09,09,7.70
2017,11,27,09,10,7.70
2017,11,27,09,11,7.70
2017,11,27,09,12,7.70
2017,11,27,09,13,7.70
2017,11,27,09,14,7.70
2017,11,27,09,15,7.80
2017,11,27,09,16,7.80
2017,11,27,09,17,7.80
2017,11,27,09,18,7.80
2017,11,27,09,19,7.80
2017,11,27,09,20,7.80
2017,11,27,09,21,7.80
2017,11,27,09,22,7.80
2017,11,27,09,23,7.80
2017,11,27,09,24,7.80
2017,11,27,09,25,7.80
2017,11,27,09,26,7.80
2017,11,27,09,27,7.80
2017,11,27,09,28,7.80
2017,11,27,09,29,7.90
2017,11,27,09,30,7.90
2017,11,27,09,31,7.90
2017,11,27,09,32,8.00
2017,11,27,09,33,8.00
2017,11,27,09,34,8.10
2017,11,27,09,35,8.10
2017,11,27,09,36,8.10
2017,11,27,09,37,8.10
2017,11,27,09,38,8.10
2017,11,27,09,39,8.10
2017,11,27,09,40,8.10
2017,11,27,09,41,8.00
2017,11,27,09,42,8.00
2017,11,27,09,43,8.00
2017,11,27,09,44,8.00
2017,11,27,09,45,8.00
2017,11,27,09,46,8.00
2017,11,27,09,47,8.00
2017,11,27,09,48,8.10
2017,11,27,09,49,8.10
2017,11,27,09,50,8.10
2017,11,27,09,51,8.10
2017,11,27,09,52,8.20
2017,11,27,09,53,8.20
2017,11,27,09,54,8.20
2017,11,27,09,55,8.20
2017,11,27,09,56,8.20
2017,11,27,09,57,8.20
2017,11,27,09,58,8.20
2017,11,27,09,59,8.20
2017,11,27,10,00,8.20
2017,11,27,10,01,8.20
2017,11,27,10,02,8.30
2017,11,27,10,03,8.30
2017,11,27,10,04,8.30
2017,11,27,10,05,8.30
2017,11,27,10,06,8.30
2017,11,27,10,07,8.40
2017,11,27,10,08,8.40
2017,11,27,10,09,8.40
2017,11,27,10,10,8.40
2017,11,27,10,11,8.40
2017,11,27,10,12,8.40
2017,11,27,10,13,8.40
2017,11,27,10,14,8.40
2017,11,27,10,15,8.40
2017,11,27,10,16,8.40
2017,11,27,10,17,8.40
2017,11,27,10,18,8.50
2017,11,27,10,19,8.50
2017,11,27,10,20,8.50
2017,11,27,10,21,8.50
2017,11,27,10,22,8.50
2017,11,27,10,23,8.60
2017,11,27,10,24,8.60
2017,11,27,10,25,8.60
2017,11,27,10,26,8.60
2017,11,27,10,27,8.60
2017,11,27,10,28,8.60
2017,11,27,10,29,8.60
2017,11,27,10,30,8.60
2017,11,27,10,31,8.50
2017,11,27,10,32,8.50
2017,11,27,10,33,8.50
2017,11,27,10,34,8.40
2017,11,27,10,35,8.40
2017,11,27,10,36,8.40
2017,11,27,10,37,8.40
2017,11,27,10,38,8.40
2017,11,27,10,39,8.40
2017,11,27,10,40,8.40
2017,11,27,10,41,8.40
2017,11,27,10,42,8.40
2017,11,27,10,43,8.40
2017,11,27,10,44,8.50
2017,11,27,10,45,8.50
2017,11,27,10,46,8.60
2017,11,27,10,47,8.60
2017,11,27,10,48,8.60
2017,11,27,10,49,8.70
2017,11,27,10,50,8.70
2017,11,27,10,51,8.80
2017,11,27,10,52,8.90
2017,11,27,10,53,8.90
2017,11,27,10,54,9.00
2017,11,27,10,55,9.10
2017,11,27,10,56,9.20
2017,11,27,10,57,9.30
2017,11,27,10,58,9.30
2017,11,27,10,59,9.30
2017,11,27,11,00,9.30
2017,11,27,11,01,9.40
2017,11,27,11,02,9.40
2017,11,27,11,03,9.50
2017,11,27,11,04,9.40
2017,11,27,11,05,9.40
2017,11,27,11,06,9.40
2017,11,27,11,07,9.40
2017,11,27,11,08,9.40
2017,11,27,11,09,9.40
2017,11,27,11,10,9.40
2017,11,27,11,11,9.40
2017,11,27,11,12,9.40
2017,11,27,11,13,9.40
2017,11,27,11,14,9.40
2017,11,27,11,15,9.40
2017,11,27,11,16,9.40
2017,11,27,11,17,9.40
2017,11,27,11,18,9.50
2017,11,27,11,19,9.50
2017,11,27,11,20,9.60
2017,11,27,11,21,9.70
2017,11,27,11,22,9.80
2017,11,27,11,23,9.80
2017,11,27,11,24,9.80
2017,11,27,11,25,9.70
2017,11,27,11,26,9.70
2017,11,27,11,27,9.70
2017,11,27,11,28,9.60
2017,11,27,11,29,9.60
2017,11,27,11,30,9.60
2017,11,27,11,31,9.60
2017,11,27,11,32,9.60
2017,11,27,11,33,9.60
2017,11,27,11,34,9.70
2017,11,27,11,35,9.70
2017,11,27,11,36,9.80
2017,11,27,11,37,9.90
2017,11,27,11,38,9.90
2017,11,27,11,39,10.00
2017,11,27,11,40,10.10
2017,11,27,11,41,10.20
2017,11,27,11,42,10.20
2017,11,27,11,43,10.30
2017,11,27,11,44,10.30
2017,11,27,11,45,10.30
2017,11,27,11,46,10.30
2017,11,27,11,47,10.30
2017,11,27,11,48,10.30
2017,11,27,11,49,10.40
2017,11,27,11,50,10.40
2017,11,27,11,51,10.40
2017,11,27,11,52,10.40
2017,11,27,11,53,10.40
2017,11,27,11,54,10.40
2017,11,27,11,55,10.40
2017,11,27,11,56,10.40
2017,11,27,11,57,10.40
2017,11,27,11,58,10.40
2017,11,27,11,59,10.30
2017,11,27,12,00,10.30
2017,11,27,12,01,10.30
2017,11,27,12,02,10.30
2017,11,27,12,03,10.30
2017,11,27,12,04,10.20
2017,11,27,12,05,10.20
2017,11,27,12,06,10.10
2017,11,27,12,07,10.10
2017,11,27,12,08,10.00
2017,11,27,12,09,10.00
2017,11,27,12,10,10.00
2017,11,27,12,11,10.00
2017,11,27,12,12,10.10
2017,11,27,12,13,10.10
2017,11,27,12,14,10.10
2017,11,27,12,15,10.10
2017,11,27,12,16,10.10
2017,11,27,12,17,10.10
2017,11,27,12,18,10.10
2017,11,27,12,19,10.10
2017,11,27,12,20,10.10
2017,11,27,12,21,10.10
2017,11,27,12,22,10.10
2017,11,27,12,23,10.10
2017,11,27,12,24,10.10
2017,11,27,12,25,10.10
2017,11,27,12,26,10.10
2017,11,27,12,27,10.20
2017,11,27,12,28,10.20
2017,11,27,12,29,10.20
2017,11,27,12,30,10.20
2017,11,27,12,31,10.30
2017,11,27,12,32,10.30
2017,11,27,12,33,10.30
2017,11,27,12,34,10.40
2017,11,27,12,35,10.40
2017,11,27,12,36,10.40
2017,11,27,12,37,10.40
2017,11,27,12,38,10.40
2017,11,27,12,39,10.50
2017,11,27,12,40,10.50
2017,11,27,12,41,10.50
2017,11,27,12,42,10.50
2017,11,27,12,43,10.50
2017,11,27,12,44,10.40
2017,11,27,12,45,10.40
2017,11,27,12,46,10.50
2017,11,27,12,47,10.50
2017,11,27,12,48,10.50
2017,11,27,12,49,10.50
2017,11,27,12,50,10.50
2017,11,27,12,51,10.50
2017,11,27,12,52,10.50
2017,11,27,12,53,10.40
2017,11,27,12,54,10.40
2017,11,27,12,55,10.40
2017,11,27,12,56,10.40
2017,11,27,12,57,10.30
2017,11,27,12,58,10.30
2017,11,27,12,59,10.30
2017,11,27,13,00,10.30
2017,11,27,13,01,10.30
2017,11,27,13,02,10.30
2017,11,27,13,03,10.30
2017,11,27,13,04,10.20
2017,11,27,13,05,10.30
2017,11,27,13,06,10.20
2017,11,27,13,07,10.20
2017,11,27,13,08,10.20
2017,11,27,13,09,10.20
2017,11,27,13,10,10.10
2017,11,27,13,11,10.10
2017,11,27,13,12,10.10
2017,11,27,13,13,10.10
2017,11,27,13,14,10.10
2017,11,27,13,15,10.10
2017,11,27,13,16,10.10
2017,11,27,13,17,10.00
2017,11,27,13,18,10.00
2017,11,27,13,19,10.00
2017,11,27,13,20,9.90
2017,11,27,13,21,9.90
2017,11,27,13,22,9.90
2017,11,27,13,23,9.90
2017,11,27,13,24,9.80
2017,11,27,13,25,9.80
2017,11,27,13,26,9.80
2017,11,27,13,27,9.70
2017,11,27,13,28,9.70
2017,11,27,13,29,9.70
2017,11,27,13,30,9.70
2017,11,27,13,31,9.70
2017,11,27,13,32,9.70
2017,11,27,13,33,9.60
2017,11,27,13,34,9.60
2017,11,27,13,35,9.60
2017,11,27,13,36,9.60
2017,11,27,13,37,9.60
2017,11,27,13,38,9.60
2017,11,27,13,39,9.60
2017,11,27,13,40,9.60
2017,11,27,13,41,9.50
2017,11,27,13,42,9.50
2017,11,27,13,43,9.50
2017,11,27,13,44,9.40
2017,11,27,13,45,9.40
2017,11,27,13,46,9.40
2017,11,27,13,47,9.40
2017,11,27,13,48,9.40
2017,11,27,13,49,9.40
2017,11,27,13,50,9.40
2017,11,27,13,51,9.40
2017,11,27,13,52,9.30
2017,11,27,13,53,9.30
2017,11,27,13,54,9.30
2017,11,27,13,55,9.40
2017,11,27,13,56,9.40
2017,11,27,13,57,9.50
2017,11,27,13,58,9.60
2017,11,27,13,59,9.60
2017,11,27,14,00,9.60
2017,11,27,14,01,9.60
2017,11,27,14,02,9.50
2017,11,27,14,03,9.50
2017,11,27,14,04,9.50
2017,11,27,14,05,9.50
2017,11,27,14,06,9.50
2017,11,27,14,07,9.60
2017,11,27,14,08,9.60
2017,11,27,14,09,9.60
2017,11,27,14,10,9.60
2017,11,27,14,11,9.60
2017,11,27,14,12,9.60
2017,11,27,14,13,9.60
2017,11,27,14,14,9.60
2017,11,27,14,15,9.60
2017,11,27,14,16,9.60
2017,11,27,14,17,9.60
2017,11,27,14,18,9.60
2017,11,27,14,19,9.60
2017,11,27,14,20,9.60
2017,11,27,14,21,9.60
2017,11,27,14,22,9.60
2017,11,27,14,23,9.60
2017,11,27,14,24,9.60
2017,11,27,14,25,9.60
2017,11,27,14,26,9.60
2017,11,27,14,27,9.60
2017,11,27,14,28,9.50
2017,11,27,14,29,9.40
2017,11,27,14,30,9.40
2017,11,27,14,31,9.40
2017,11,27,14,32,9.30
2017,11,27,14,33,9.30
2017,11,27,14,34,9.30
2017,11,27,14,35,9.20
2017,11,27,14,36,9.20
2017,11,27,14,37,9.20
2017,11,27,14,38,9.10
2017,11,27,14,39,9.10
2017,11,27,14,40,9.10
2017,11,27,14,41,9.20
2017,11,27,14,42,9.20
2017,11,27,14,43,9.10
2017,11,27,14,44,9.10
2017,11,27,14,45,9.10
2017,11,27,14,46,9.10
2017,11,27,14,47,9.10
2017,11,27,14,48,9.10
2017,11,27,14,49,9.10
2017,11,27,14,50,9.10
2017,11,27,14,51,9.10
2017,11,27,14,52,9.10
2017,11,27,14,53,9.10
2017,11,27,14,54,9.10
2017,11,27,14,55,9.20
2017,11,27,14,56,9.20
2017,11,27,14,57,9.10
2017,11,27,14,58,9.10
2017,11,27,14,59,9.10
2017,11,27,15,00,9.10
2017,11,27,15,01,9.10
2017,11,27,15,02,9.10
2017,11,27,15,03,9.10
2017,11,27,15,04,9.10
2017,11,27,15,05,9.10
2017,11,27,15,06,9.00
2017,11,27,15,07,9.00
2017,11,27,15,08,9.00
2017,11,27,15,09,9.00
2017,11,27,15,10,9.00
2017,11,27,15,11,8.90
2017,11,27,15,12,8.90
2017,11,27,15,13,8.90
2017,11,27,15,14,8.90
2017,11,27,15,15,8.90
2017,11,27,15,16,8.80
2017,11,27,15,17,8.80
2017,11,27,15,18,8.80
2017,11,27,15,19,8.80
2017,11,27,15,20,8.80
2017,11,27,15,21,8.80
2017,11,27,15,22,8.80
2017,11,27,15,23,8.80
2017,11,27,15,24,8.80
2017,11,27,15,25,8.80
2017,11,27,15,26,8.80
2017,11,27,15,27,8.80
2017,11,27,15,28,8.80
2017,11,27,15,29,8.70
2017,11,27,15,30,8.70
2017,11,27,15,31,8.70
2017,11,27,15,32,8.70
2017,11,27,15,33,8.70
2017,11,27,15,34,8.70
2017,11,27,15,35,8.70
2017,11,27,15,36,8.70
2017,11,27,15,37,8.70
2017,11,27,15,38,8.60
2017,11,27,15,39,8.60
2017,11,27,15,40,8.60
2017,11,27,15,41,8.60
2017,11,27,15,42,8.60
2017,11,27,15,43,8.60
2017,11,27,15,44,8.60
2017,11,27,15,45,8.60
2017,11,27,15,46,8.60
2017,11,27,15,47,8.60
2017,11,27,15,48,8.50
2017,11,27,15,49,8.50
2017,11,27,15,50,8.50
2017,11,27,15,51,8.40
2017,11,27,15,52,8.40
2017,11,27,15,53,8.40
2017,11,27,15,54,8.40
2017,11,27,15,55,8.40
2017,11,27,15,56,8.30
2017,11,27,15,57,8.30
2017,11,27,15,58,8.30
2017,11,27,15,59,8.30
2017,11,27,16,00,8.30
2017,11,27,16,01,8.30
2017,11,27,16,02,8.30
2017,11,27,16,03,8.30
2017,11,27,16,04,8.30
2017,11,27,16,05,8.30
2017,11,27,16,06,8.30
2017,11,27,16,07,8.30
2017,11,27,16,08,8.30
2017,11,27,16,09,8.30
2017,11,27,16,10,8.30
2017,11,27,16,11,8.30
2017,11,27,16,12,8.30
2017,11,27,16,13,8.30
2017,11,27,16,14,8.30
2017,11,27,16,15,8.30
2017,11,27,16,16,8.30
2017,11,27,16,17,8.30
2017,11,27,16,18,8.30
2017,11,27,16,19,8.20
2017,11,27,16,20,8.20
2017,11,27,16,21,8.20
2017,11,27,16,22,8.20
2017,11,27,16,23,8.20
2017,11,27,16,24,8.20
2017,11,27,16,25,8.20
2017,11,27,16,26,8.20
2017,11,27,16,27,8.20
2017,11,27,16,28,8.20
2017,11,27,16,29,8.20
2017,11,27,16,30,8.20
2017,11,27,16,31,8.20
2017,11,27,16,32,8.20
2017,11,27,16,33,8.20
2017,11,27,16,34,8.20
2017,11,27,16,35,8.20
2017,11,27,16,36,8.20
2017,11,27,16,37,8.20
2017,11,27,16,38,8.20
2017,11,27,16,39,8.20
2017,11,27,16,40,8.20
2017,11,27,16,41,8.20
2017,11,27,16,42,8.20
2017,11,27,16,43,8.20
2017,11,27,16,44,8.20
2017,11,27,16,45,8.10
2017,11,27,16,46,8.10
2017,11,27,16,47,8.10
2017,11,27,16,48,8.10
2017,11,27,16,49,8.10
2017,11,27,16,50,8.10
2017,11,27,16,51,8.10
2017,11,27,16,52,8.10
2017,11,27,16,53,8.10
2017,11,27,16,54,8.10
2017,11,27,16,55,8.10
2017,11,27,16,56,8.10
2017,11,27,16,57,8.00
2017,11,27,16,58,8.00
2017,11,27,16,59,7.90
2017,11,27,17,00,7.90
2017,11,27,17,01,7.90
2017,11,27,17,02,7.90
2017,11,27,17,03,7.90
2017,11,27,17,04,7.90
2017,11,27,17,05,7.90
2017,11,27,17,06,8.00
2017,11,27,17,07,8.00
2017,11,27,17,08,7.90
2017,11,27,17,09,7.90
2017,11,27,17,10,7.90
2017,11,27,17,11,7.90
2017,11,27,17,12,7.90
2017,11,27,17,13,7.90
2017,11,27,17,14,7.90
2017,11,27,17,15,7.90
2017,11,27,17,16,7.90
2017,11,27,17,17,7.90
2017,11,27,17,18,7.80
2017,11,27,17,19,7.80
2017,11,27,17,20,7.80
2017,11,27,17,21,7.80
2017,11,27,17,22,7.80
2017,11,27,17,23,7.80
2017,11,27,17,24,7.80
2017,11,27,17,25,7.80
2017,11,27,17,26,7.80
2017,11,27,17,27,7.80
2017,11,27,17,28,7.80
2017,11,27,17,29,7.80
2017,11,27,17,30,7.80
2017,11,27,17,31,7.80
2017,11,27,17,32,7.80
2017,11,27,17,33,7.80
2017,11,27,17,34,7.80
2017,11,27,17,35,7.70
2017,11,27,17,36,7.70
2017,11,27,17,37,7.70
2017,11,27,17,38,7.70
2017,11,27,17,39,7.70
2017,11,27,17,40,7.70
2017,11,27,17,41,7.70
2017,11,27,17,42,7.70
2017,11,27,17,43,7.70
2017,11,27,17,44,7.70
2017,11,27,17,45,7.70
2017,11,27,17,46,7.70
2017,11,27,17,47,7.70
2017,11,27,17,48,7.70
2017,11,27,17,49,7.70
2017,11,27,17,50,7.70
2017,11,27,17,51,7.70
2017,11,27,17,52,7.70
2017,11,27,17,53,7.70
2017,11,27,17,54,7.70
2017,11,27,17,55,7.70
2017,11,27,17,56,7.70
2017,11,27,17,57,7.70
2017,11,27,17,58,7.70
2017,11,27,17,59,7.60
2017,11,27,18,00,7.60
2017,11,27,18,01,7.60
2017,11,27,18,02,7.60
2017,11,27,18,03,7.60
2017,11,27,18,04,7.60
2017,11,27,18,05,7.60
2017,11,27,18,06,7.60
2017,11,27,18,07,7.60
2017,11,27,18,08,7.60
2017,11,27,18,09,7.60
2017,11,27,18,10,7.60
2017,11,27,18,11,7.60
2017,11,27,18,12,7.60
2017,11,27,18,13,7.60
2017,11,27,18,14,7.60
2017,11,27,18,15,7.60
2017,11,27,18,16,7.60
2017,11,27,18,17,7.60
2017,11,27,18,18,7.60
2017,11,27,18,19,7.60
2017,11,27,18,20,7.60
2017,11,27,18,21,7.60
2017,11,27,18,22,7.60
2017,11,27,18,23,7.60
2017,11,27,18,24,7.60
2017,11,27,18,25,7.60
2017,11,27,18,26,7.60
2017,11,27,18,27,7.60
2017,11,27,18,28,7.60
2017,11,27,18,29,7.60
2017,11,27,18,30,7.60
2017,11,27,18,31,7.60
2017,11,27,18,32,7.60
2017,11,27,18,33,7.60
2017,11,27,18,34,7.60
2017,11,27,18,35,7.60
2017,11,27,18,36,7.50
2017,11,27,18,37,7.50
2017,11,27,18,38,7.50
2017,11,27,18,39,7.50
2017,11,27,18,40,7.50
2017,11,27,18,41,7.50
2017,11,27,18,42,7.50
2017,11,27,18,43,7.50
2017,11,27,18,44,7.50
2017,11,27,18,45,7.50
2017,11,27,18,46,7.50
2017,11,27,18,47,7.50
2017,11,27,18,48,7.50
2017,11,27,18,49,7.40
2017,11,27,18,50,7.40
2017,11,27,18,51,7.40
2017,11,27,18,52,7.40
2017,11,27,18,53,7.40
2017,11,27,18,54,7.40
2017,11,27,18,55,7.40
2017,11,27,18,56,7.40
2017,11,27,18,57,7.40
2017,11,27,18,58,7.40
2017,11,27,18,59,7.40
2017,11,27,19,00,7.40
2017,11,27,19,01,7.40
2017,11,27,19,02,7.40
2017,11,27,19,03,7.40
2017,11,27,19,04,7.40
2017,11,27,19,05,7.40
2017,11,27,19,06,7.40
2017,11,27,19,07,7.40
2017,11,27,19,08,7.40
2017,11,27,19,09,7.40
2017,11,27,19,10,7.40
2017,11,27,19,11,7.40
2017,11,27,19,12,7.40
2017,11,27,19,13,7.40
2017,11,27,19,14,7.40
2017,11,27,19,15,7.40
2017,11,27,19,16,7.40
2017,11,27,19,17,7.40
2017,11,27,19,18,7.40
2017,11,27,19,19,7.40
2017,11,27,19,20,7.40
2017,11,27,19,21,7.40
2017,11,27,19,22,7.40
2017,11,27,19,23,7.40
2017,11,27,19,24,7.40
2017,11,27,19,25,7.40
2017,11,27,19,26,7.40
2017,11,27,19,27,7.40
2017,11,27,19,28,7.40
2017,11,27,19,29,7.40
2017,11,27,19,30,7.40
2017,11,27,19,31,7.40
2017,11,27,19,32,7.40
2017,11,27,19,33,7.40
2017,11,27,19,34,7.50
2017,11,27,19,35,7.50
2017,11,27,19,36,7.50
2017,11,27,19,37,7.50
2017,11,27,19,38,7.60
2017,11,27,19,39,7.60
2017,11,27,19,40,7.60
2017,11,27,19,41,7.60
2017,11,27,19,42,7.60
2017,11,27,19,43,7.70
2017,11,27,19,44,7.70
2017,11,27,19,45,7.70
2017,11,27,19,46,7.70
2017,11,27,19,47,7.70
2017,11,27,19,48,7.70
2017,11,27,19,49,7.70
2017,11,27,19,50,7.70
2017,11,27,19,51,7.70
2017,11,27,19,52,7.70
2017,11,27,19,53,7.70
2017,11,27,19,54,7.70
2017,11,27,19,55,7.70
2017,11,27,19,56,7.70
2017,11,27,19,57,7.70
2017,11,27,19,58,7.70
2017,11,27,19,59,7.70
2017,11,27,20,00,7.70
2017,11,27,20,01,7.70
2017,11,27,20,02,7.70
2017,11,27,20,03,7.70
2017,11,27,20,04,7.70
2017,11,27,20,05,7.70
2017,11,27,20,06,7.70
2017,11,27,20,07,7.70
2017,11,27,20,08,7.70
2017,11,27,20,09,7.70
2017,11,27,20,10,7.70
2017,11,27,20,11,7.70
2017,11,27,20,12,7.70
2017,11,27,20,13,7.70
2017,11,27,20,14,7.70
2017,11,27,20,15,7.70
2017,11,27,20,16,7.70
2017,11,27,20,17,7.70
2017,11,27,20,18,7.70
2017,11,27,20,19,7.70
2017,11,27,20,20,7.70
2017,11,27,20,21,7.70
2017,11,27,20,22,7.70
2017,11,27,20,23,7.80
2017,11,27,20,24,7.80
2017,11,27,20,25,7.80
2017,11,27,20,26,7.80
2017,11,27,20,27,7.80
2017,11,27,20,28,7.80
2017,11,27,20,29,7.80
2017,11,27,20,30,7.80
2017,11,27,20,31,7.80
2017,11,27,20,32,7.80
2017,11,27,20,33,7.80
2017,11,27,20,34,7.80
2017,11,27,20,35,7.80
2017,11,27,20,36,7.80
2017,11,27,20,37,7.80
2017,11,27,20,38,7.80
2017,11,27,20,39,7.80
2017,11,27,20,40,7.80
2017,11,27,20,41,7.80
2017,11,27,20,42,7.80
2017,11,27,20,43,7.70
2017,11,27,20,44,7.70
2017,11,27,20,45,7.70
2017,11,27,20,46,7.70
2017,11,27,20,47,7.70
2017,11,27,20,48,7.70
2017,11,27,20,49,7.70
2017,11,27,20,50,7.70
2017,11,27,20,51,7.70
2017,11,27,20,52,7.70
2017,11,27,20,53,7.60
2017,11,27,20,54,7.60
2017,11,27,20,55,7.60
2017,11,27,20,56,7.60
2017,11,27,20,57,7.60
2017,11,27,20,58,7.60
2017,11,27,20,59,7.60
2017,11,27,21,00,7.50
2017,11,27,21,01,7.50
2017,11,27,21,02,7.50
2017,11,27,21,03,7.50
2017,11,27,21,04,7.50
2017,11,27,21,05,7.50
2017,11,27,21,06,7.50
2017,11,27,21,07,7.50
2017,11,27,21,08,7.50
2017,11,27,21,09,7.50
2017,11,27,21,10,7.50
2017,11,27,21,11,7.50
2017,11,27,21,12,7.50
2017,11,27,21,13,7.50
2017,11,27,21,14,7.50
2017,11,27,21,15,7.50
2017,11,27,21,16,7.50
2017,11,27,21,17,7.50
2017,11,27,21,18,7.50
2017,11,27,21,19,7.50
2017,11,27,21,20,7.50
2017,11,27,21,21,7.50
2017,11,27,21,22,7.50
2017,11,27,21,23,7.50
2017,11,27,21,24,7.50
2017,11,27,21,25,7.50
2017,11,27,21,26,7.50
2017,11,27,21,27,7.50
2017,11,27,21,28,7.50
2017,11,27,21,29,7.50
2017,11,27,21,30,7.50
2017,11,27,21,31,7.40
2017,11,27,21,32,7.40
2017,11,27,21,33,7.40
2017,11,27,21,34,7.40
2017,11,27,21,35,7.40
2017,11,27,21,36,7.40
2017,11,27,21,37,7.40
2017,11,27,21,38,7.40
2017,11,27,21,39,7.40
2017,11,27,21,40,7.40
2017,11,27,21,41,7.40
2017,11,27,21,42,7.40
2017,11,27,21,43,7.40
2017,11,27,21,44,7.40
2017,11,27,21,45,7.40
2017,11,27,21,46,7.40
2017,11,27,21,47,7.30
2017,11,27,21,48,7.30
2017,11,27,21,49,7.30
2017,11,27,21,50,7.30
2017,11,27,21,51,7.30
2017,11,27,21,52,7.30
2017,11,27,21,53,7.30
2017,11,27,21,54,7.30
2017,11,27,21,55,7.30
2017,11,27,21,56,7.30
2017,11,27,21,57,7.30
2017,11,27,21,58,7.30
2017,11,27,21,59,7.30
2017,11,27,22,00,7.30
2017,11,27,22,01,7.30
2017,11,27,22,02,7.30
2017,11,27,22,03,7.30
2017,11,27,22,04,7.30
2017,11,27,22,05,7.30
2017,11,27,22,06,7.30
2017,11,27,22,07,7.30
2017,11,27,22,08,7.30
2017,11,27,22,09,7.30
2017,11,27,22,10,7.30
2017,11,27,22,11,7.30
2017,11,27,22,12,7.30
2017,11,27,22,13,7.30
2017,11,27,22,14,7.30
2017,11,27,22,15,7.30
2017,11,27,22,16,7.30
2017,11,27,22,17,7.30
2017,11,27,22,18,7.30
2017,11,27,22,19,7.30
2017,11,27,22,20,7.40
2017,11,27,22,21,7.30
2017,11,27,22,22,7.30
2017,11,27,22,23,7.30
2017,11,27,22,24,7.30
2017,11,27,22,25,7.30
2017,11,27,22,26,7.40
2017,11,27,22,27,7.40